Station Historical Data
Daily Summary for June 6, 2017 Units:  English    Metric   Both
« Previous Day
Next Day »
Daily Weekly Monthly Yearly Custom
  High: Low: Average:
Temperature: 64.7 °F 51.2 °F 56.9 °F
Dew Point: 59.4 °F 48.9 °F 53.3 °F
Humidity: 92% 76% 88%
Wind Speed: 11.0mph 0.0mph 3.2mph
Wind Gust: 16.0mph - -
Wind- - South
Pressure: 29.98 in 29.72 in -
Precipitation: 0.00 in    
Historical Graphs
 
 
Tabular Data for June 6, 2017
Time Temperature Dew Point Pressure Wind Wind Speed Wind Gust Humidity Rainfall Rate (Hourly)
00:04 58.3 °F 53.2 °F 29.76 in Calm   5.0 mph 83% 0.00 in
00:09 58.3 °F 53.2 °F 29.76 in WNW 2.0 mph 4.0 mph 83% 0.00 in
00:14 58.2 °F 53.1 °F 29.76 in WSW 1.0 mph 5.0 mph 83% 0.00 in
00:19 58.2 °F 53.1 °F 29.76 in West 1.0 mph 5.0 mph 83% 0.00 in
00:24 58.2 °F 53.1 °F 29.75 in WSW 1.0 mph 3.0 mph 83% 0.00 in
00:29 58.1 °F 53.0 °F 29.75 in WSW 1.0 mph 3.0 mph 83% 0.00 in
00:34 58.0 °F 52.9 °F 29.75 in WSW 2.0 mph 3.0 mph 83% 0.00 in
00:39 57.9 °F 52.8 °F 29.75 in WSW 2.0 mph 3.0 mph 83% 0.00 in
00:44 57.8 °F 53.0 °F 29.75 in Calm   3.0 mph 84% 0.00 in
00:49 57.6 °F 52.8 °F 29.75 in WSW 1.0 mph 3.0 mph 84% 0.00 in
00:54 57.5 °F 52.7 °F 29.75 in WSW 1.0 mph 2.0 mph 84% 0.00 in
00:59 57.5 °F 53.0 °F 29.74 in Calm   2.0 mph 85% 0.00 in
01:04 57.5 °F 53.0 °F 29.74 in West 1.0 mph 3.0 mph 85% 0.00 in
01:09 57.6 °F 53.1 °F 29.74 in West 1.0 mph 3.0 mph 85% 0.00 in
01:14 57.6 °F 53.1 °F 29.74 in West 2.0 mph 2.0 mph 85% 0.00 in
01:19 57.6 °F 53.1 °F 29.74 in West 1.0 mph 3.0 mph 85% 0.00 in
01:24 57.5 °F 53.0 °F 29.74 in West 2.0 mph 3.0 mph 85% 0.00 in
01:29 57.6 °F 53.1 °F 29.74 in West 1.0 mph 4.0 mph 85% 0.00 in
01:34 57.6 °F 53.1 °F 29.74 in West 1.0 mph 2.0 mph 85% 0.00 in
01:39 57.6 °F 53.1 °F 29.74 in West 1.0 mph 2.0 mph 85% 0.00 in
01:44 57.6 °F 53.1 °F 29.74 in WNW 1.0 mph 3.0 mph 85% 0.00 in
01:49 57.6 °F 53.1 °F 29.74 in NW 1.0 mph 5.0 mph 85% 0.00 in
01:54 57.7 °F 53.2 °F 29.73 in NW 1.0 mph 5.0 mph 85% 0.00 in
01:59 57.7 °F 52.9 °F 29.74 in NW 2.0 mph 5.0 mph 84% 0.00 in
02:04 57.6 °F 52.8 °F 29.73 in NW 2.0 mph 5.0 mph 84% 0.00 in
02:09 57.6 °F 52.8 °F 29.73 in WNW 1.0 mph 4.0 mph 84% 0.00 in
02:14 57.6 °F 53.1 °F 29.73 in WNW 1.0 mph 3.0 mph 85% 0.00 in
02:19 57.6 °F 53.1 °F 29.73 in WNW 1.0 mph 3.0 mph 85% 0.00 in
02:24 57.6 °F 53.1 °F 29.73 in WNW 1.0 mph 3.0 mph 85% 0.00 in
02:29 57.6 °F 53.1 °F 29.73 in WNW 1.0 mph 3.0 mph 85% 0.00 in
02:34 57.6 °F 53.1 °F 29.73 in WNW 2.0 mph 3.0 mph 85% 0.00 in
02:39 57.5 °F 53.0 °F 29.73 in WNW 2.0 mph 4.0 mph 85% 0.00 in
02:44 57.5 °F 53.0 °F 29.73 in WNW 3.0 mph 5.0 mph 85% 0.00 in
02:49 57.4 °F 52.9 °F 29.73 in WNW 2.0 mph 6.0 mph 85% 0.00 in
02:54 57.3 °F 52.8 °F 29.73 in WNW 2.0 mph 6.0 mph 85% 0.00 in
02:59 57.3 °F 53.1 °F 29.73 in WNW 1.0 mph 4.0 mph 86% 0.00 in
03:04 57.4 °F 53.2 °F 29.73 in WNW 1.0 mph 5.0 mph 86% 0.00 in
03:09 57.4 °F 53.2 °F 29.73 in WNW 2.0 mph 5.0 mph 86% 0.00 in
03:14 57.3 °F 53.1 °F 29.73 in WNW 3.0 mph 6.0 mph 86% 0.00 in
03:19 57.3 °F 53.1 °F 29.73 in West 1.0 mph 5.0 mph 86% 0.00 in
03:24 57.3 °F 53.1 °F 29.73 in WNW 1.0 mph 5.0 mph 86% 0.00 in
03:29 57.3 °F 53.1 °F 29.73 in WNW 1.0 mph 6.0 mph 86% 0.00 in
03:34 57.2 °F 53.0 °F 29.73 in WNW 2.0 mph 6.0 mph 86% 0.00 in
03:39 57.1 °F 53.0 °F 29.73 in WNW 2.0 mph 6.0 mph 86% 0.00 in
03:44 57.1 °F 53.0 °F 29.73 in WNW 2.0 mph 4.0 mph 86% 0.00 in
03:49 57.1 °F 53.0 °F 29.73 in WNW 2.0 mph 7.0 mph 86% 0.00 in
03:54 57.1 °F 53.0 °F 29.73 in West 3.0 mph 7.0 mph 86% 0.00 in
03:59 57.0 °F 52.9 °F 29.73 in West 3.0 mph 6.0 mph 86% 0.00 in
04:04 57.0 °F 52.9 °F 29.73 in West 3.0 mph 6.0 mph 86% 0.00 in
04:09 56.9 °F 52.8 °F 29.73 in West 3.0 mph 7.0 mph 86% 0.00 in
04:14 56.7 °F 52.9 °F 29.73 in West 3.0 mph 7.0 mph 87% 0.00 in
04:19 56.6 °F 52.8 °F 29.73 in WNW 1.0 mph 4.0 mph 87% 0.00 in
04:24 56.5 °F 53.0 °F 29.73 in Calm   3.0 mph 88% 0.00 in
04:29 56.5 °F 53.0 °F 29.73 in West 3.0 mph 5.0 mph 88% 0.01 in
04:34 56.4 °F 53.2 °F 29.73 in West 1.0 mph 5.0 mph 89% 0.01 in
04:39 56.3 °F 53.1 °F 29.73 in West 2.0 mph 7.0 mph 89% 0.01 in
04:44 56.3 °F 53.1 °F 29.73 in West 2.0 mph 5.0 mph 89% 0.01 in
04:49 56.2 °F 53.0 °F 29.73 in West 2.0 mph 5.0 mph 89% 0.01 in
04:54 56.3 °F 53.1 °F 29.73 in West 2.0 mph 4.0 mph 89% 0.01 in
04:59 56.2 °F 53.0 °F 29.73 in West 3.0 mph 6.0 mph 89% 0.01 in
05:04 56.2 °F 53.0 °F 29.73 in NW 4.0 mph 6.0 mph 89% 0.01 in
05:09 56.2 °F 53.3 °F 29.73 in WNW 3.0 mph 6.0 mph 90% 0.01 in
05:14 56.1 °F 53.2 °F 29.73 in WNW 4.0 mph 6.0 mph 90% 0.01 in
05:19 56.0 °F 53.1 °F 29.73 in WNW 3.0 mph 6.0 mph 90% 0.01 in
05:24 56.0 °F 53.1 °F 29.73 in WNW 3.0 mph 6.0 mph 90% 0.00 in
05:29 56.0 °F 53.1 °F 29.73 in WNW 3.0 mph 6.0 mph 90% 0.00 in
05:34 56.0 °F 53.1 °F 29.73 in WNW 3.0 mph 6.0 mph 90% 0.00 in
05:39 56.0 °F 53.1 °F 29.72 in WNW 3.0 mph 6.0 mph 90% 0.00 in
05:44 55.9 °F 53.0 °F 29.73 in Calm   4.0 mph 90% 0.00 in
05:49 56.0 °F 53.1 °F 29.73 in West 5.0 mph 5.0 mph 90% 0.00 in
05:54 56.0 °F 53.1 °F 29.73 in WNW 4.0 mph 6.0 mph 90% 0.00 in
05:59 56.0 °F 53.1 °F 29.73 in West 6.0 mph 6.0 mph 90% 0.00 in
06:04 56.0 °F 53.1 °F 29.73 in WNW 2.0 mph 7.0 mph 90% 0.00 in
06:09 56.0 °F 53.1 °F 29.73 in West 2.0 mph 6.0 mph 90% 0.00 in
06:14 56.0 °F 53.4 °F 29.73 in WNW 4.0 mph 7.0 mph 91% 0.00 in
06:19 56.1 °F 53.5 °F 29.73 in West 4.0 mph 5.0 mph 91% 0.00 in
06:24 56.1 °F 53.5 °F 29.74 in WNW 3.0 mph 7.0 mph 91% 0.00 in
06:29 56.0 °F 53.4 °F 29.74 in WNW 4.0 mph 10.0 mph 91% 0.00 in
06:34 56.1 °F 53.5 °F 29.74 in WNW 4.0 mph 10.0 mph 91% 0.00 in
06:39 56.2 °F 53.6 °F 29.74 in WNW 2.0 mph 6.0 mph 91% 0.00 in
06:44 56.1 °F 53.5 °F 29.74 in NW 4.0 mph 7.0 mph 91% 0.00 in
06:49 56.1 °F 53.5 °F 29.74 in WNW 4.0 mph 7.0 mph 91% 0.00 in
06:54 56.0 °F 53.4 °F 29.74 in WNW 3.0 mph 7.0 mph 91% 0.00 in
06:59 56.2 °F 53.6 °F 29.74 in West 2.0 mph 6.0 mph 91% 0.00 in
07:04 56.2 °F 53.6 °F 29.74 in WNW 1.0 mph 6.0 mph 91% 0.00 in
07:09 56.2 °F 53.6 °F 29.74 in WNW 2.0 mph 6.0 mph 91% 0.00 in
07:14 56.3 °F 53.7 °F 29.74 in West 3.0 mph 8.0 mph 91% 0.00 in
07:19 56.3 °F 53.7 °F 29.74 in West 2.0 mph 5.0 mph 91% 0.00 in
07:24 56.4 °F 53.8 °F 29.75 in West 3.0 mph 6.0 mph 91% 0.00 in
07:29 56.5 °F 53.9 °F 29.75 in West 3.0 mph 6.0 mph 91% 0.00 in
07:34 56.6 °F 54.0 °F 29.75 in West 2.0 mph 6.0 mph 91% 0.00 in
07:39 56.7 °F 54.1 °F 29.75 in West 2.0 mph 5.0 mph 91% 0.00 in
07:44 56.7 °F 54.1 °F 29.75 in West 2.0 mph 6.0 mph 91% 0.00 in
07:49 56.6 °F 54.0 °F 29.75 in West 2.0 mph 6.0 mph 91% 0.00 in
07:54 56.5 °F 53.9 °F 29.75 in WSW 2.0 mph 6.0 mph 91% 0.01 in
07:59 56.5 °F 53.9 °F 29.75 in West 4.0 mph 5.0 mph 91% 0.01 in
08:04 56.4 °F 54.1 °F 29.75 in WNW 2.0 mph 6.0 mph 92% 0.01 in
08:09 56.4 °F 53.8 °F 29.75 in West 3.0 mph 5.0 mph 91% 0.01 in
08:14 56.4 °F 54.1 °F 29.75 in West 2.0 mph 7.0 mph 92% 0.01 in
08:19 56.6 °F 54.3 °F 29.76 in West 3.0 mph 7.0 mph 92% 0.01 in
08:24 56.6 °F 54.3 °F 29.76 in WNW 3.0 mph 7.0 mph 92% 0.01 in
08:29 56.7 °F 54.4 °F 29.76 in WNW 3.0 mph 7.0 mph 92% 0.01 in
08:34 56.7 °F 54.4 °F 29.76 in WNW 2.0 mph 6.0 mph 92% 0.01 in
08:39 56.7 °F 54.4 °F 29.76 in NW 4.0 mph 6.0 mph 92% 0.01 in
08:44 56.8 °F 54.5 °F 29.76 in West 2.0 mph 6.0 mph 92% 0.01 in
08:49 56.9 °F 54.6 °F 29.76 in West 3.0 mph 6.0 mph 92% 0.02 in
08:54 57.0 °F 54.7 °F 29.76 in West 2.0 mph 6.0 mph 92% 0.01 in
08:59 57.1 °F 54.8 °F 29.76 in West 2.0 mph 6.0 mph 92% 0.01 in
09:04 57.3 °F 55.0 °F 29.76 in West 2.0 mph 6.0 mph 92% 0.01 in
09:09 57.5 °F 55.2 °F 29.77 in West 3.0 mph 8.0 mph 92% 0.01 in
09:14 57.5 °F 55.2 °F 29.76 in WNW 2.0 mph 7.0 mph 92% 0.01 in
09:19 57.5 °F 54.9 °F 29.77 in WNW 3.0 mph 7.0 mph 91% 0.01 in
09:24 57.5 °F 54.9 °F 29.77 in WNW 2.0 mph 5.0 mph 91% 0.01 in
09:29 57.5 °F 54.9 °F 29.76 in WNW 4.0 mph 7.0 mph 91% 0.01 in
09:34 57.8 °F 55.2 °F 29.77 in West 5.0 mph 6.0 mph 91% 0.01 in
09:39 58.2 °F 55.3 °F 29.77 in West 2.0 mph 7.0 mph 90% 0.01 in
09:44 58.7 °F 55.5 °F 29.77 in West 4.0 mph 7.0 mph 89% 0.01 in
09:49 58.4 °F 55.2 °F 29.76 in WNW 4.0 mph 8.0 mph 89% 0.00 in
09:54 58.5 °F 55.3 °F 29.77 in WNW 3.0 mph 8.0 mph 89% 0.00 in
09:59 58.3 °F 55.1 °F 29.76 in WNW 4.0 mph 7.0 mph 89% 0.00 in
10:04 58.6 °F 55.4 °F 29.77 in WNW 4.0 mph 7.0 mph 89% 0.00 in
10:09 58.9 °F 55.7 °F 29.77 in NW 3.0 mph 6.0 mph 89% 0.00 in
10:14 58.8 °F 55.3 °F 29.77 in NNW 1.0 mph 5.0 mph 88% 0.00 in
10:19 58.3 °F 55.1 °F 29.77 in NW 3.0 mph 8.0 mph 89% 0.00 in
10:24 58.1 °F 55.2 °F 29.77 in West 3.0 mph 7.0 mph 90% 0.00 in
10:29 58.2 °F 55.3 °F 29.77 in NW 6.0 mph 8.0 mph 90% 0.00 in
10:34 58.2 °F 55.3 °F 29.77 in West 6.0 mph 7.0 mph 90% 0.00 in
10:39 58.4 °F 55.5 °F 29.77 in West 4.0 mph 8.0 mph 90% 0.01 in
10:44 58.5 °F 55.9 °F 29.77 in NW 3.0 mph 5.0 mph 91% 0.02 in
10:49 58.6 °F 56.0 °F 29.77 in WNW 3.0 mph 7.0 mph 91% 0.02 in
10:54 58.8 °F 55.9 °F 29.77 in WNW 4.0 mph 7.0 mph 90% 0.02 in
10:59 59.7 °F 57.1 °F 29.77 in West 4.0 mph 8.0 mph 91% 0.02 in
11:04 60.4 °F 57.1 °F 29.77 in West 4.0 mph 8.0 mph 89% 0.02 in
11:09 60.3 °F 56.7 °F 29.77 in WNW 2.0 mph 6.0 mph 88% 0.02 in
11:14 60.0 °F 56.4 °F 29.77 in Calm   5.0 mph 88% 0.02 in
11:19 61.0 °F 57.7 °F 29.77 in West 2.0 mph 7.0 mph 89% 0.02 in
11:24 60.7 °F 56.5 °F 29.77 in WNW 4.0 mph 10.0 mph 86% 0.02 in
11:29 60.0 °F 55.8 °F 29.77 in NW 2.0 mph 8.0 mph 86% 0.02 in
11:34 62.0 °F 58.4 °F 29.77 in WNW 6.0 mph 8.0 mph 88% 0.02 in
11:39 62.7 °F 58.1 °F 29.77 in West 4.0 mph 8.0 mph 85% 0.01 in
11:44 62.2 °F 57.3 °F 29.77 in NW 2.0 mph 7.0 mph 84% 0.00 in
11:49 62.2 °F 56.6 °F 29.77 in NW 3.0 mph 8.0 mph 82% 0.00 in
11:54 63.4 °F 57.8 °F 29.77 in NW 3.0 mph 8.0 mph 82% 0.00 in
11:59 64.1 °F 58.1 °F 29.77 in NNW 3.0 mph 7.0 mph 81% 0.00 in
12:04 63.5 °F 57.6 °F 29.77 in NNW 3.0 mph 7.0 mph 81% 0.00 in
12:09 62.9 °F 57.0 °F 29.77 in NW 2.0 mph 5.0 mph 81% 0.00 in
12:14 62.8 °F 56.5 °F 29.77 in NNW 5.0 mph 7.0 mph 80% 0.00 in
12:19 62.9 °F 56.6 °F 29.77 in NNW 4.0 mph 9.0 mph 80% 0.00 in
12:24 63.2 °F 56.9 °F 29.77 in NNW 3.0 mph 9.0 mph 80% 0.00 in
12:29 62.7 °F 55.0 °F 29.77 in NNW 4.0 mph 9.0 mph 76% 0.00 in
12:34 62.7 °F 56.1 °F 29.78 in NNW 4.0 mph 9.0 mph 79% 0.00 in
12:39 61.2 °F 55.7 °F 29.78 in NNW 4.0 mph 10.0 mph 82% 0.00 in
12:44 60.7 °F 56.5 °F 29.78 in North 2.0 mph 8.0 mph 86% 0.00 in
12:49 60.9 °F 57.0 °F 29.78 in NNW 7.0 mph 8.0 mph 87% 0.00 in
12:54 61.3 °F 57.7 °F 29.78 in NNW 4.0 mph 8.0 mph 88% 0.00 in
12:59 62.5 °F 59.2 °F 29.78 in West 1.0 mph 6.0 mph 89% 0.00 in
13:04 63.7 °F 59.4 °F 29.78 in NW 3.0 mph 6.0 mph 86% 0.00 in
13:09 63.3 °F 57.7 °F 29.78 in NNW 2.0 mph 8.0 mph 82% 0.00 in
13:14 62.1 °F 57.2 °F 29.78 in NE 1.0 mph 7.0 mph 84% 0.00 in
13:19 62.0 °F 57.8 °F 29.78 in Calm   6.0 mph 86% 0.00 in
13:24 62.0 °F 57.4 °F 29.78 in NNW 2.0 mph 6.0 mph 85% 0.00 in
13:29 61.8 °F 56.9 °F 29.78 in North 3.0 mph 7.0 mph 84% 0.00 in
13:34 61.8 °F 57.2 °F 29.78 in North 4.0 mph 12.0 mph 85% 0.00 in
13:39 63.2 °F 58.9 °F 29.78 in NNW 4.0 mph 12.0 mph 86% 0.00 in
13:44 63.2 °F 57.6 °F 29.78 in North 3.0 mph 8.0 mph 82% 0.00 in
13:49 62.7 °F 57.1 °F 29.78 in NNW 4.0 mph 9.0 mph 82% 0.00 in
13:54 62.3 °F 57.1 °F 29.78 in NNW 4.0 mph 9.0 mph 83% 0.00 in
13:59 62.4 °F 57.8 °F 29.78 in East 3.0 mph 10.0 mph 85% 0.00 in
14:04 61.4 °F 56.5 °F 29.78 in North 3.0 mph 10.0 mph 84% 0.00 in
14:09 61.4 °F 56.5 °F 29.79 in North 1.0 mph 11.0 mph 84% 0.00 in
14:14 62.9 °F 57.7 °F 29.78 in NNE 3.0 mph 11.0 mph 83% 0.00 in
14:19 63.2 °F 57.6 °F 29.78 in NNE 2.0 mph 10.0 mph 82% 0.00 in
14:24 64.3 °F 58.7 °F 29.78 in North 4.0 mph 10.0 mph 82% 0.00 in
14:29 64.7 °F 59.1 °F 29.79 in NNE 4.0 mph 8.0 mph 82% 0.00 in
14:34 63.6 °F 57.3 °F 29.79 in North 4.0 mph 12.0 mph 80% 0.00 in
14:39 62.2 °F 56.6 °F 29.79 in North 4.0 mph 12.0 mph 82% 0.00 in
14:44 61.0 °F 56.5 °F 29.79 in North 4.0 mph 12.0 mph 85% 0.00 in
14:49 60.2 °F 56.3 °F 29.80 in North 5.0 mph 10.0 mph 87% 0.00 in
14:54 59.2 °F 55.6 °F 29.80 in North 4.0 mph 10.0 mph 88% 0.01 in
14:59 58.6 °F 55.1 °F 29.80 in NNE 4.0 mph 9.0 mph 88% 0.01 in
15:04 58.5 °F 55.0 °F 29.81 in NE 6.0 mph 11.0 mph 88% 0.01 in
15:09 58.6 °F 55.1 °F 29.81 in NE 4.0 mph 9.0 mph 88% 0.01 in
15:14 58.9 °F 55.0 °F 29.81 in NE 4.0 mph 16.0 mph 87% 0.01 in
15:19 59.5 °F 55.6 °F 29.81 in North 4.0 mph 11.0 mph 87% 0.01 in
15:24 60.5 °F 56.9 °F 29.81 in NE 3.0 mph 11.0 mph 88% 0.01 in
15:29 61.0 °F 55.5 °F 29.82 in NE 4.0 mph 11.0 mph 82% 0.01 in
15:34 59.7 °F 54.5 °F 29.82 in NNE 5.0 mph 11.0 mph 83% 0.01 in
15:39 58.8 °F 53.6 °F 29.82 in NE 8.0 mph 9.0 mph 83% 0.01 in
15:44 58.5 °F 53.4 °F 29.82 in North 4.0 mph 14.0 mph 83% 0.01 in
15:49 58.0 °F 53.2 °F 29.82 in NNE 2.0 mph 11.0 mph 84% 0.01 in
15:54 57.7 °F 52.9 °F 29.83 in NE 5.0 mph 11.0 mph 84% 0.00 in
15:59 57.7 °F 52.9 °F 29.83 in NE 4.0 mph 16.0 mph 84% 0.00 in
16:04 57.5 °F 52.7 °F 29.83 in NE 4.0 mph 16.0 mph 84% 0.00 in
16:09 57.5 °F 53.0 °F 29.83 in NE 5.0 mph 14.0 mph 85% 0.00 in
16:14 57.6 °F 52.8 °F 29.83 in NE 5.0 mph 14.0 mph 84% 0.00 in
16:19 57.3 °F 52.2 °F 29.83 in NE 7.0 mph 16.0 mph 83% 0.00 in
16:24 57.3 °F 52.2 °F 29.84 in NE 8.0 mph 14.0 mph 83% 0.00 in
16:29 57.4 °F 52.6 °F 29.84 in NNE 7.0 mph 12.0 mph 84% 0.00 in
16:34 57.0 °F 51.9 °F 29.84 in NNE 2.0 mph 15.0 mph 83% 0.00 in
16:39 56.7 °F 52.2 °F 29.84 in NE 4.0 mph 9.0 mph 85% 0.00 in
16:44 56.5 °F 52.0 °F 29.85 in NNE 5.0 mph 8.0 mph 85% 0.00 in
16:49 56.7 °F 52.6 °F 29.84 in NE 3.0 mph 12.0 mph 86% 0.00 in
16:54 56.7 °F 52.2 °F 29.85 in NNE 4.0 mph 14.0 mph 85% 0.00 in
16:59 56.5 °F 52.0 °F 29.85 in NE 6.0 mph 14.0 mph 85% 0.00 in
17:04 56.5 °F 52.0 °F 29.85 in NE 6.0 mph 13.0 mph 85% 0.00 in
17:09 56.4 °F 51.9 °F 29.85 in NE 6.0 mph 13.0 mph 85% 0.00 in
17:14 56.0 °F 51.9 °F 29.85 in NE 6.0 mph 16.0 mph 86% 0.00 in
17:19 55.9 °F 52.1 °F 29.86 in NE 5.0 mph 16.0 mph 87% 0.00 in
17:24 55.9 °F 52.1 °F 29.86 in NE 5.0 mph 11.0 mph 87% 0.00 in
17:29 56.0 °F 52.2 °F 29.86 in NNE 4.0 mph 12.0 mph 87% 0.00 in
17:34 55.9 °F 52.1 °F 29.86 in NNE 3.0 mph 12.0 mph 87% 0.00 in
17:39 55.9 °F 52.1 °F 29.86 in NE 6.0 mph 13.0 mph 87% 0.00 in
17:44 55.9 °F 52.1 °F 29.86 in ENE 7.0 mph 9.0 mph 87% 0.00 in
17:49 55.3 °F 51.5 °F 29.87 in NNE 4.0 mph 13.0 mph 87% 0.00 in
17:54 55.0 °F 51.2 °F 29.87 in North 5.0 mph 9.0 mph 87% 0.00 in
17:59 54.8 °F 51.3 °F 29.88 in NE 3.0 mph 9.0 mph 88% 0.00 in
18:04 54.7 °F 51.2 °F 29.88 in NE 4.0 mph 10.0 mph 88% 0.00 in
18:09 54.6 °F 51.1 °F 29.88 in NE 4.0 mph 11.0 mph 88% 0.00 in
18:14 54.5 °F 51.3 °F 29.88 in NNE 4.0 mph 11.0 mph 89% 0.00 in
18:19 54.3 °F 51.1 °F 29.89 in NNE 4.0 mph 8.0 mph 89% 0.00 in
18:24 54.4 °F 51.2 °F 29.89 in NNE 1.0 mph 9.0 mph 89% 0.00 in
18:29 54.7 °F 51.5 °F 29.89 in NNE 2.0 mph 6.0 mph 89% 0.00 in
18:34 54.8 °F 51.6 °F 29.89 in NNE 3.0 mph 6.0 mph 89% 0.00 in
18:39 54.7 °F 51.2 °F 29.89 in NE 4.0 mph 10.0 mph 88% 0.00 in
18:44 54.7 °F 51.2 °F 29.90 in NE 4.0 mph 9.0 mph 88% 0.00 in
18:49 54.6 °F 51.4 °F 29.90 in NNE 5.0 mph 9.0 mph 89% 0.00 in
18:54 54.3 °F 51.1 °F 29.90 in North 2.0 mph 11.0 mph 89% 0.01 in
18:59 54.2 °F 51.0 °F 29.90 in NE 2.0 mph 10.0 mph 89% 0.01 in
19:04 54.1 °F 50.9 °F 29.91 in NNE 4.0 mph 10.0 mph 89% 0.01 in
19:09 54.1 °F 50.9 °F 29.91 in NNE 4.0 mph 10.0 mph 89% 0.01 in
19:14 54.0 °F 50.8 °F 29.91 in NNE 4.0 mph 12.0 mph 89% 0.01 in
19:19 54.0 °F 50.8 °F 29.91 in NNE 4.0 mph 12.0 mph 89% 0.01 in
19:24 53.8 °F 50.3 °F 29.91 in NNE 4.0 mph 11.0 mph 88% 0.01 in
19:29 53.7 °F 50.2 °F 29.91 in NNE 4.0 mph 15.0 mph 88% 0.01 in
19:34 53.7 °F 50.2 °F 29.92 in NNE 3.0 mph 10.0 mph 88% 0.01 in
19:39 53.7 °F 50.2 °F 29.92 in NE 3.0 mph 13.0 mph 88% 0.01 in
19:44 53.8 °F 50.3 °F 29.92 in NNE 2.0 mph 13.0 mph 88% 0.01 in
19:49 53.8 °F 50.3 °F 29.92 in East 11.0 mph 14.0 mph 88% 0.01 in
19:54 54.0 °F 50.5 °F 29.92 in NNE 1.0 mph 11.0 mph 88% 0.00 in
19:59 54.1 °F 50.3 °F 29.92 in North 3.0 mph 6.0 mph 87% 0.00 in
20:04 54.1 °F 50.3 °F 29.92 in NNE 4.0 mph 9.0 mph 87% 0.00 in
20:09 54.1 °F 50.3 °F 29.92 in NNE 4.0 mph 10.0 mph 87% 0.00 in
20:14 54.1 °F 50.0 °F 29.93 in NE 4.0 mph 10.0 mph 86% 0.00 in
20:19 54.0 °F 49.9 °F 29.93 in NE 3.0 mph 11.0 mph 86% 0.00 in
20:24 53.8 °F 49.7 °F 29.93 in NE 7.0 mph 11.0 mph 86% 0.00 in
20:29 53.6 °F 49.8 °F 29.93 in NE 5.0 mph 11.0 mph 87% 0.00 in
20:34 53.5 °F 49.7 °F 29.93 in NE 5.0 mph 10.0 mph 87% 0.00 in
20:39 53.3 °F 49.8 °F 29.93 in NE 5.0 mph 10.0 mph 88% 0.00 in
20:44 53.2 °F 50.0 °F 29.93 in NE 4.0 mph 10.0 mph 89% 0.00 in
20:49 52.9 °F 49.7 °F 29.93 in NE 7.0 mph 10.0 mph 89% 0.00 in
20:54 52.8 °F 49.6 °F 29.94 in NE 4.0 mph 11.0 mph 89% 0.00 in
20:59 52.8 °F 49.9 °F 29.94 in NE 3.0 mph 11.0 mph 90% 0.00 in
21:04 52.8 °F 49.9 °F 29.94 in ENE 8.0 mph 9.0 mph 90% 0.00 in
21:09 52.7 °F 49.8 °F 29.94 in NNW 2.0 mph 10.0 mph 90% 0.00 in
21:14 52.6 °F 49.8 °F 29.94 in NNE 3.0 mph 7.0 mph 90% 0.00 in
21:19 52.5 °F 49.7 °F 29.94 in NE 2.0 mph 7.0 mph 90% 0.00 in
21:24 52.4 °F 49.6 °F 29.94 in NNE 5.0 mph 10.0 mph 90% 0.00 in
21:29 52.3 °F 49.8 °F 29.95 in NE 4.0 mph 11.0 mph 91% 0.00 in
21:34 52.3 °F 49.5 °F 29.95 in NE 4.0 mph 11.0 mph 90% 0.00 in
21:39 52.2 °F 49.4 °F 29.95 in NE 4.0 mph 10.0 mph 90% 0.00 in
21:49 52.2 °F 49.4 °F 29.95 in NE 4.0 mph 14.0 mph 90% 0.00 in
21:54 52.1 °F 49.3 °F 29.95 in NE 4.0 mph 5.0 mph 90% 0.00 in
21:59 52.0 °F 49.2 °F 29.95 in NE 3.0 mph 9.0 mph 90% 0.00 in
22:04 52.0 °F 49.2 °F 29.96 in ENE 2.0 mph 8.0 mph 90% 0.00 in
22:09 52.0 °F 49.2 °F 29.96 in East 9.0 mph 9.0 mph 90% 0.00 in
22:14 52.1 °F 49.3 °F 29.96 in NE 4.0 mph 11.0 mph 90% 0.00 in
22:19 52.1 °F 49.6 °F 29.96 in ENE 1.0 mph 9.0 mph 91% 0.00 in
22:24 52.1 °F 49.6 °F 29.96 in NE 2.0 mph 6.0 mph 91% 0.00 in
22:29 52.0 °F 49.5 °F 29.97 in NE 2.0 mph 7.0 mph 91% 0.00 in
22:34 52.0 °F 49.5 °F 29.97 in NE 2.0 mph 9.0 mph 91% 0.00 in
22:39 52.0 °F 49.5 °F 29.97 in NE 3.0 mph 11.0 mph 91% 0.01 in
22:44 51.9 °F 49.4 °F 29.97 in NE 4.0 mph 11.0 mph 91% 0.01 in
22:49 52.0 °F 49.7 °F 29.97 in NE 2.0 mph 11.0 mph 92% 0.01 in
22:54 51.9 °F 49.6 °F 29.97 in NNE 1.0 mph 6.0 mph 92% 0.01 in
22:59 51.7 °F 49.2 °F 29.97 in NNE 3.0 mph 9.0 mph 91% 0.01 in
23:04 51.6 °F 49.1 °F 29.97 in NE 3.0 mph 6.0 mph 91% 0.01 in
23:09 51.4 °F 48.9 °F 29.97 in NNE 3.0 mph 11.0 mph 91% 0.01 in
23:14 51.3 °F 49.1 °F 29.97 in NE 8.0 mph 11.0 mph 92% 0.01 in
23:19 51.2 °F 49.0 °F 29.98 in ENE 7.0 mph 11.0 mph 92% 0.01 in
23:24 51.2 °F 49.0 °F 29.98 in NE 2.0 mph 9.0 mph 92% 0.01 in
23:29 51.3 °F 49.1 °F 29.98 in NE 4.0 mph 10.0 mph 92% 0.01 in
23:34 51.2 °F 49.0 °F 29.98 in NE 5.0 mph 12.0 mph 92% 0.01 in
23:39 51.3 °F 49.1 °F 29.98 in NE 5.0 mph 12.0 mph 92% 0.00 in
23:44 51.4 °F 49.2 °F 29.98 in NE 3.0 mph 10.0 mph 92% 0.00 in
23:49 51.4 °F 49.2 °F 29.98 in NNE 2.0 mph 5.0 mph 92% 0.01 in
23:54 51.4 °F 49.2 °F 29.98 in NE 2.0 mph 5.0 mph 92% 0.01 in
23:59 51.3 °F 49.1 °F 29.98 in ENE 5.0 mph 9.0 mph 92% 0.01 in
Buffalo, New York, USA
Compliments of Weather Underground - 2.5 mb